Stations météo

réclame
Mon MeteoGroup
Pertusato, France (7770): Température de l'air & dewpoint: 19.02.2018 10:00:00 - 25.02.2018 10:00:00 (CET)Pertusato, France (7770): Vitesse du vent & gusts: 19.02.2018 10:00:00 - 25.02.2018 10:00:00 (CET)Pertusato, France (7770): Direction du vent: 19.02.2018 10:00:00 - 25.02.2018 10:00:00 (CET)Pertusato, France (7770): reduced air pressure: 19.02.2018 10:00:00 - 25.02.2018 10:00:00 (CET)Pertusato, France (7770): visibility: 19.02.2018 10:00:00 - 25.02.2018 10:00:00 (CET)Pertusato, France (7770): Quantités de précipitations: 19.02.2018 10:00:00 - 25.02.2018 10:00:00 (CET)
Date & Time tt [°C] td [°C] ff [km/h] ff [knt] fx [km/h] fx [knt] dd ppp [hPa] vv [km] rr [mm]
25.02.2018 10:00:00 8,9 6,0 7 4 27 14 E 1005,8 8 0,0
25.02.2018 09:00:00 8,7 6,8 8 4 28 15 SE 1005,6 - 0,2
25.02.2018 08:00:00 8,6 6,0 13 7 33 18 W 1005,7 8 0,4
25.02.2018 07:00:00 7,9 5,9 9 5 35 19 NNW 1005,7 - 0,2
25.02.2018 06:00:00 8,0 6,5 15 8 51 28 NW 1005,7 - 1,3
25.02.2018 05:00:00 8,8 5,5 19 10 49 27 WNW 1005,6 - 0,6
25.02.2018 04:00:00 8,8 6,8 13 7 45 24 WNW 1005,7 - 4,2
25.02.2018 03:00:00 8,3 5,9 15 8 46 25 N 1005,8 - 2,4
25.02.2018 02:00:00 8,9 6,7 17 9 58 31 S 1005,4 - 1,6
25.02.2018 01:00:00 9,1 7,2 15 8 47 26 W 1005,9 - 1,8
25.02.2018 00:00:00 9,0 5,6 19 10 48 26 NW 1005,8 - 1,7
24.02.2018 23:00:00 9,0 5,9 21 11 53 29 WNW 1005,6 - 2,6
24.02.2018 22:00:00 8,9 7,3 26 14 50 27 W 1005,8 - 4,0
24.02.2018 21:00:00 8,9 7,5 23 13 49 27 W 1005,5 - 3,8
24.02.2018 20:00:00 8,7 7,1 29 16 55 30 W 1004,9 8 1,5
24.02.2018 19:00:00 8,5 7,0 40 22 58 31 W 1004,7 - 1,6
24.02.2018 18:00:00 8,7 7,1 44 24 62 33 W 1004,1 - 1,8
24.02.2018 17:00:00 8,3 6,9 41 22 59 32 W 1004,0 - 3,8
24.02.2018 16:00:00 8,5 7,4 42 23 68 37 W 1003,4 8 3,4
24.02.2018 15:00:00 8,5 7,4 49 27 74 40 W 1002,6 - 1,5
24.02.2018 14:00:00 8,5 7,3 60 33 80 43 W 1001,8 - 1,4
24.02.2018 13:00:00 8,9 8,1 55 30 75 41 W 1002,0 8 2,0
24.02.2018 12:00:00 8,7 7,5 24 13 41 22 WNW 1002,8 - 0,8
24.02.2018 11:00:00 8,8 7,2 16 8 32 18 W 1002,9 - 0,8
24.02.2018 10:00:00 9,0 7,3 17 9 30 16 WNW 1002,6 12 0,2
24.02.2018 09:00:00 9,2 5,7 18 10 29 15 W 1002,5 - 0,0
24.02.2018 08:00:00 8,6 5,3 2 1 17 9 SSE 1002,0 - 0,0
24.02.2018 07:00:00 8,0 5,1 5 3 14 8 SE 1001,5 - 0,0
24.02.2018 06:00:00 8,1 4,5 2 1 34 19 ESE 1001,4 - 0,0
24.02.2018 05:00:00 8,5 5,1 16 9 25 13 WNW 1001,1 - 0,2
24.02.2018 04:00:00 8,1 6,6 11 6 18 10 NNW 1001,4 - 0,0
24.02.2018 03:00:00 9,1 6,9 4 2 13 7 NNE 1001,4 - 0,0
24.02.2018 02:00:00 9,6 6,9 4 2 22 12 SSE 1000,8 - 0,0
24.02.2018 01:00:00 9,7 6,4 6 3 17 9 SSW 1001,2 - 0,0
24.02.2018 00:00:00 8,6 5,5 6 4 12 6 WNW 1001,3 - 0,0
23.02.2018 23:00:00 8,0 5,5 6 4 10 5 W 1001,0 - 0,0
23.02.2018 22:00:00 7,8 4,9 6 4 17 9 NE 1001,5 - 0,0
23.02.2018 21:00:00 8,1 5,4 12 6 20 11 NE 1001,1 - 0,0
23.02.2018 20:00:00 8,5 5,4 9 5 14 8 NE 1001,1 - 0,0
23.02.2018 19:00:00 8,8 5,2 6 3 11 6 ENE 1001,0 - 0,0
23.02.2018 18:00:00 9,6 5,2 5 3 10 5 E 1001,0 - 0,0
23.02.2018 17:00:00 10,3 5,3 3 1 8 4 WNW 1000,6 - 0,0
23.02.2018 16:00:00 10,8 5,5 5 3 21 11 WSW 1000,4 18 0,0
23.02.2018 15:00:00 10,8 5,1 12 6 26 14 W 1000,2 - 0,0
23.02.2018 14:00:00 11,3 5,4 11 6 25 13 W 1000,2 - 0,0
23.02.2018 13:00:00 11,5 5,1 8 5 18 10 WSW 1000,5 18 0,0
23.02.2018 12:00:00 11,0 5,1 8 4 26 14 WSW 1000,7 - 0,0
23.02.2018 11:00:00 10,8 5,5 8 5 35 19 WNW 1000,6 - 0,0
23.02.2018 10:00:00 10,3 6,8 10 6 34 18 SSE 1000,3 15 0,0
23.02.2018 09:00:00 9,9 6,4 9 5 30 16 N 1000,0 - 0,0
23.02.2018 08:00:00 9,0 5,9 8 5 28 15 NNE 1000,2 - 0,0
23.02.2018 07:00:00 8,4 5,3 12 6 21 12 W 999,9 15 0,0
23.02.2018 06:00:00 8,1 4,9 6 3 19 11 NNW 1000,2 - 0,0
23.02.2018 05:00:00 8,2 5,1 9 5 31 17 S 1000,3 - 0,0
23.02.2018 04:00:00 8,2 5,5 6 3 19 11 NW 1000,1 15 0,0
23.02.2018 03:00:00 7,8 5,3 8 4 21 11 NW 1000,1 - 0,0
23.02.2018 02:00:00 7,4 4,5 7 4 19 10 W 1001,2 - 0,0
23.02.2018 01:00:00 7,5 5,6 7 4 18 10 WNW 1001,5 - 0,0
23.02.2018 00:00:00 6,8 5,7 6 3 14 8 W 1001,8 - 0,0
22.02.2018 23:00:00 6,4 5,3 5 3 9 5 W 1002,0 - 1,4
22.02.2018 22:00:00 5,8 4,8 3 1 13 7 W 1002,0 - 1,5
22.02.2018 21:00:00 5,5 4,6 9 5 20 11 NNE 1002,0 - 2,6
22.02.2018 20:00:00 5,9 4,9 16 9 23 13 NE 1001,6 - 1,2
22.02.2018 19:00:00 6,0 4,6 16 8 24 13 NE 1001,3 15 0,8
22.02.2018 18:00:00 6,5 3,8 17 9 36 19 NE 1000,9 - 0,0
22.02.2018 17:00:00 7,4 3,4 24 13 41 22 NNE 1000,8 - 0,0
22.02.2018 16:00:00 7,6 4,5 27 15 52 28 NE 1000,9 18 0,2
22.02.2018 15:00:00 8,5 3,9 27 15 52 28 NE 1000,7 - 0,0
22.02.2018 14:00:00 9,6 3,8 32 18 53 28 NE 1000,6 - 0,0
22.02.2018 13:00:00 9,4 3,6 27 15 48 26 NE 1000,8 18 0,0
22.02.2018 12:00:00 9,8 3,5 27 15 47 26 NE 1001,1 - 0,0
22.02.2018 11:00:00 9,0 3,6 26 14 50 27 NE 1001,0 - 0,0
22.02.2018 10:00:00 8,4 3,8 28 15 50 27 NE 1000,9 15 0,0
22.02.2018 09:00:00 7,7 3,4 29 16 44 24 NE 1001,1 - 0,0
22.02.2018 08:00:00 7,3 3,5 29 16 44 24 NE 1000,9 - 0,0
22.02.2018 07:00:00 6,7 2,4 23 13 33 18 NE 1000,8 15 0,0
22.02.2018 06:00:00 6,2 1,7 21 11 33 18 NE 1000,6 - 0,0
22.02.2018 05:00:00 5,9 1,4 19 10 41 22 NE 1000,8 - 0,0
22.02.2018 04:00:00 6,5 1,8 25 14 39 21 NE 1001,1 - 0,0
22.02.2018 03:00:00 5,1 0,3 13 7 29 15 NE 1001,9 - 0,0
22.02.2018 02:00:00 6,0 0,7 19 10 32 17 NE 1002,3 - 0,0
22.02.2018 01:00:00 6,9 1,4 22 12 47 26 NE 1002,4 - 0,0
22.02.2018 00:00:00 7,0 1,9 25 13 47 25 NE 1002,5 - 0,0
21.02.2018 23:00:00 7,1 1,4 26 14 42 23 NE 1002,6 - 0,0
21.02.2018 22:00:00 6,4 0,3 19 10 45 24 NE 1003,0 - 0,0
21.02.2018 21:00:00 7,1 0,5 28 15 59 32 NNE 1002,9 - 0,0
21.02.2018 20:00:00 7,2 1,5 29 15 51 28 NNE 1002,9 - 0,0
21.02.2018 19:00:00 7,1 1,0 24 13 45 24 NE 1002,8 16 0,0
21.02.2018 18:00:00 7,4 1,7 24 13 40 22 NE 1002,8 - 0,0
21.02.2018 17:00:00 7,5 1,8 24 13 49 26 NE 1002,2 - 0,0
21.02.2018 16:00:00 7,9 2,6 31 17 50 27 NE 1002,3 17 0,0
21.02.2018 15:00:00 7,3 4,1 24 13 46 25 NE 1002,5 - 0,0
21.02.2018 14:00:00 6,4 4,4 21 11 41 22 NE 1003,2 - 0,4
21.02.2018 13:00:00 7,2 4,5 26 14 50 27 NE 1003,5 17 0,6
21.02.2018 12:00:00 10,6 2,9 30 16 50 27 NE 1003,8 - 0,0
21.02.2018 11:00:00 9,9 2,7 29 16 47 25 NE 1003,5 - 0,0
21.02.2018 10:00:00 8,3 2,7 23 12 40 22 NE 1003,3 - 0,0
21.02.2018 09:00:00 7,3 3,2 21 11 34 19 NE 1002,8 - 0,0
21.02.2018 08:00:00 5,1 2,6 16 9 28 15 ENE 1003,1 - 0,6
21.02.2018 07:00:00 5,6 0,4 15 8 28 15 NNE 1002,9 15 0,0
21.02.2018 06:00:00 6,1 0,4 19 10 30 16 NE 1002,7 - 0,0
21.02.2018 05:00:00 6,0 0,7 17 9 26 14 NNE 1002,8 - 0,0
21.02.2018 04:00:00 5,4 0,2 18 10 27 15 NE 1002,9 - 0,0
21.02.2018 03:00:00 4,9 -0,5 18 10 25 13 NE 1003,6 - 0,0
21.02.2018 02:00:00 5,2 0,0 17 9 26 14 NE 1004,2 - 0,0
21.02.2018 01:00:00 6,3 0,6 20 11 28 15 NE 1004,6 - 0,0
21.02.2018 00:00:00 6,8 0,9 17 9 29 16 NE 1004,8 - 0,0
20.02.2018 23:00:00 6,7 1,0 17 9 30 16 NE 1005,0 - 0,0
20.02.2018 22:00:00 6,3 1,2 20 11 29 15 NE 1004,7 - 0,0
20.02.2018 21:00:00 6,8 1,1 20 11 34 19 NE 1005,0 - 0,0
20.02.2018 20:00:00 5,7 2,3 16 9 29 16 NE 1004,9 - 0,0
20.02.2018 19:00:00 6,4 4,1 16 9 27 14 NE 1004,8 - 0,0
20.02.2018 18:00:00 6,9 5,4 12 7 33 18 NE 1004,8 - 0,0
20.02.2018 17:00:00 7,4 6,0 16 9 44 24 ENE 1004,5 - 0,4
20.02.2018 16:00:00 8,3 5,0 28 15 46 25 NE 1004,1 20 0,0
20.02.2018 15:00:00 10,3 5,5 28 15 46 25 NE 1004,2 - 0,0
20.02.2018 14:00:00 10,5 4,8 16 8 29 15 NE 1004,5 - 0,0
20.02.2018 13:00:00 9,3 7,1 6 3 17 9 N 1005,3 20 0,2
20.02.2018 12:00:00 8,2 2,8 4 2 17 9 WNW 1006,5 - 1,0
20.02.2018 11:00:00 10,6 5,8 4 2 15 8 SE 1006,8 - 0,0
20.02.2018 10:00:00 9,5 5,7 10 5 17 9 SSE 1007,1 - 0,0
20.02.2018 09:00:00 9,1 4,3 4 2 21 12 SW 1007,8 - 0,0
20.02.2018 08:00:00 8,1 5,6 10 5 25 14 SSE 1007,9 - 0,0
20.02.2018 07:00:00 8,7 5,4 11 6 29 16 NNW 1008,0 6 0,0
20.02.2018 06:00:00 9,2 6,1 19 10 42 23 WNW 1008,3 - 0,0
20.02.2018 05:00:00 8,8 3,8 19 10 32 17 NW 1008,4 - 0,0
20.02.2018 04:00:00 9,0 4,8 20 11 35 19 WNW 1009,0 - 0,0
20.02.2018 03:00:00 8,8 4,6 24 13 37 20 WNW 1009,5 - 0,0
20.02.2018 02:00:00 8,9 4,9 17 9 29 15 NW 1010,3 - 0,0
20.02.2018 01:00:00 9,4 5,6 14 7 25 13 WNW 1010,8 - 0,0
20.02.2018 00:00:00 9,6 6,1 5 3 20 11 NE 1011,3 - 0,0
19.02.2018 23:00:00 8,2 4,8 0 0 7 4 N 1012,0 - 0,0
19.02.2018 22:00:00 7,8 4,6 5 3 11 6 NNE 1012,4 - 0,0
19.02.2018 21:00:00 7,3 4,6 8 4 9 5 NE 1012,7 - 0,0
19.02.2018 20:00:00 7,0 4,6 7 4 16 8 NE 1012,8 - 0,0
19.02.2018 19:00:00 7,5 5,6 13 7 17 9 NE 1012,8 20 0,0
19.02.2018 18:00:00 8,2 6,0 14 8 32 17 ENE 1012,6 - 0,0
19.02.2018 17:00:00 9,7 5,1 21 11 34 18 NE 1012,7 - 0,0
19.02.2018 16:00:00 9,9 5,7 23 12 35 19 NE 1012,8 20 0,0
19.02.2018 15:00:00 11,0 5,1 21 11 36 20 NE 1013,0 - 0,0
19.02.2018 14:00:00 12,9 6,9 19 11 38 21 NE 1013,1 - 0,0
19.02.2018 13:00:00 11,9 5,7 25 13 40 22 NE 1013,5 20 0,0
19.02.2018 12:00:00 11,8 6,3 22 12 36 19 NE 1013,8 - 0,0
19.02.2018 11:00:00 10,4 5,6 22 12 37 20 NE 1014,1 - 0,0
19.02.2018 10:00:00 9,3 4,7 21 11 36 19 NE 1014,2 20 0,0

tt = Température de l'air
td = dewpoint
ff = Vitesse du vent
fx = gusts
dd = Direction du vent
ppp = reduced air pressure
vv = visibility
rr = Quantités de précipitations

stations d'obs. à proximité